Regional Weather Roundup
Issued by NWS Charleston, WV

Home | Current Version | Previous Version | Graphics & Text | Print | Product List | Glossary On
Versions: 1 2 3 4 5 6 7 8 9 10 11 12 13 14 15 16 17 18 19 20 21 22 23 24 25 26 27 28 29 30 31 32 33 34 35 36 37 38 39 40 41 42 43 44 45 46 47 48 49 50
000
ASUS41 KRLX 271310
RWRRLX
West Virginia Regional Weather Roundup
National Weather Service Charleston WV
900 AM EDT WED AUG 27 2014

Note: "fair" indicates few or no clouds below 12,000 feet with no
significant weather and/or obstructions to visibility.

WVZ003-271400-
Northern Panhandle of West Virginia

CITY           SKY/WX    TMP DP  RH WIND       PRES   REMARKS
WHEELING       SUNNY     71  64  78 S5        30.11S
$$

WVZ009-271400-
Northwest West Virginia

CITY           SKY/WX    TMP DP  RH WIND       PRES   REMARKS
PARKERSBURG    MOSUNNY   68  64  87 S3        30.15R
$$

WVZ006-271400-
Western West Virginia

CITY           SKY/WX    TMP DP  RH WIND       PRES   REMARKS
HUNTINGTON     SUNNY     66  64  93 CALM      30.13R
$$

WVZ015-271400-
West Central West Virginia

CITY           SKY/WX    TMP DP  RH WIND       PRES   REMARKS
CHARLESTON     MOSUNNY   63  62  97 CALM      30.14S
$$

WVZ031-271400-
North Central West Virginia

CITY           SKY/WX    TMP DP  RH WIND       PRES   REMARKS
CLARKSBURG     PTSUNNY   65  61  87 S5        30.14F
MORGANTOWN     PTSUNNY   69  61  75 CALM      30.14F
$$

WVZ035-042-045-271400-
South Central West Virginia

CITY           SKY/WX    TMP DP  RH WIND       PRES   REMARKS
BECKLEY        SUNNY     66  58  75 CALM      30.20R
BLUEFIELD      SUNNY     65  57  75 CALM      30.22S
LEWISBURG      FOG       56  55  94 CALM      30.20R VSB 1/4
$$

WVZ047-271400-
Northern Mountains of West Virginia

CITY           SKY/WX    TMP DP  RH WIND       PRES   REMARKS
ELKINS         SUNNY     59  56  89 CALM      30.20F
$$

WVZ052-271400-
Eastern Panhandle of West Virginia

CITY           SKY/WX    TMP DP  RH WIND       PRES   REMARKS
MARTINSBURG    SUNNY     67  60  78 S3        30.11S
PETERSBURG     NOT AVBL
$$



USA.gov is the U.S. government's official web portal to all federal, state and local government web resources and services.